Location: Baili�vre
(50.0696°N, 4.2409°E)
Time: 03:32:36
(UTC+00:00)

Cosmos 2219 Rocket - Pass Details

Date: 08 August 2020
Orbit: 826 x 848 km, 71.0° (Epoch: 25 September)

Event Time Altitude Azimuth Distance (km) Brightness Sun altitude
Rises 23:29:10 0° 330° (NNW) 3,415 6.4 -24.0°
Reaches altitude 10° 23:31:37 10° 331° (NNW) 2,479 5.5 -24.0°
Maximum altitude 23:37:20 89° 61° (ENE) 855 2.1 -24.1°
Enters shadow 23:38:33 58° 150° (SSE) 987 2.2 -24.1°
